Year,Month,Day,Hour,Minute,Value (Times are PST for insolation in W/m^2)
2010,04,27,00,00,0.00
2010,04,27,00,01,0.00
2010,04,27,00,02,0.00
2010,04,27,00,03,0.00
2010,04,27,00,04,0.00
2010,04,27,00,05,0.00
2010,04,27,00,06,0.00
2010,04,27,00,07,0.00
2010,04,27,00,08,0.00
2010,04,27,00,09,0.00
2010,04,27,00,10,0.00
2010,04,27,00,11,0.00
2010,04,27,00,12,0.00
2010,04,27,00,13,0.00
2010,04,27,00,14,0.00
2010,04,27,00,15,0.00
2010,04,27,00,16,0.00
2010,04,27,00,17,0.00
2010,04,27,00,18,0.00
2010,04,27,00,19,0.00
2010,04,27,00,20,0.00
2010,04,27,00,21,0.00
2010,04,27,00,22,0.00
2010,04,27,00,23,0.00
2010,04,27,00,24,0.00
2010,04,27,00,25,0.00
2010,04,27,00,26,0.00
2010,04,27,00,27,0.00
2010,04,27,00,28,0.00
2010,04,27,00,29,0.00
2010,04,27,00,30,0.00
2010,04,27,00,31,0.00
2010,04,27,00,32,0.00
2010,04,27,00,33,0.00
2010,04,27,00,34,0.00
2010,04,27,00,35,0.00
2010,04,27,00,36,0.00
2010,04,27,00,37,0.00
2010,04,27,00,38,0.00
2010,04,27,00,39,0.00
2010,04,27,00,40,0.00
2010,04,27,00,41,0.00
2010,04,27,00,42,0.00
2010,04,27,00,43,0.00
2010,04,27,00,44,0.00
2010,04,27,00,45,0.00
2010,04,27,00,46,0.00
2010,04,27,00,47,0.00
2010,04,27,00,48,0.00
2010,04,27,00,49,0.00
2010,04,27,00,50,0.00
2010,04,27,00,51,0.00
2010,04,27,00,52,0.00
2010,04,27,00,53,0.00
2010,04,27,00,54,0.00
2010,04,27,00,55,0.00
2010,04,27,00,56,0.00
2010,04,27,00,57,0.00
2010,04,27,00,58,0.00
2010,04,27,00,59,0.00
2010,04,27,01,00,0.00
2010,04,27,01,01,0.00
2010,04,27,01,02,0.00
2010,04,27,01,03,0.00
2010,04,27,01,04,0.00
2010,04,27,01,05,0.00
2010,04,27,01,06,0.00
2010,04,27,01,07,0.00
2010,04,27,01,08,0.00
2010,04,27,01,09,0.00
2010,04,27,01,10,0.00
2010,04,27,01,11,0.00
2010,04,27,01,12,0.00
2010,04,27,01,13,0.00
2010,04,27,01,14,0.00
2010,04,27,01,15,0.00
2010,04,27,01,16,0.00
2010,04,27,01,17,0.00
2010,04,27,01,18,0.00
2010,04,27,01,19,0.00
2010,04,27,01,20,0.00
2010,04,27,01,21,0.00
2010,04,27,01,22,0.00
2010,04,27,01,23,0.00
2010,04,27,01,24,0.00
2010,04,27,01,25,0.00
2010,04,27,01,26,0.00
2010,04,27,01,27,0.00
2010,04,27,01,28,0.00
2010,04,27,01,29,0.00
2010,04,27,01,30,0.00
2010,04,27,01,31,0.00
2010,04,27,01,32,0.00
2010,04,27,01,33,0.00
2010,04,27,01,34,0.00
2010,04,27,01,35,0.00
2010,04,27,01,36,0.00
2010,04,27,01,37,0.00
2010,04,27,01,38,0.00
2010,04,27,01,39,0.00
2010,04,27,01,40,0.00
2010,04,27,01,41,0.00
2010,04,27,01,42,0.00
2010,04,27,01,43,0.00
2010,04,27,01,44,0.00
2010,04,27,01,45,0.00
2010,04,27,01,46,0.00
2010,04,27,01,47,0.00
2010,04,27,01,48,0.00
2010,04,27,01,49,0.00
2010,04,27,01,50,0.00
2010,04,27,01,51,0.00
2010,04,27,01,52,0.00
2010,04,27,01,53,0.00
2010,04,27,01,54,0.00
2010,04,27,01,55,0.00
2010,04,27,01,56,0.00
2010,04,27,01,57,0.00
2010,04,27,01,58,0.00
2010,04,27,01,59,0.00
2010,04,27,02,00,0.00
2010,04,27,02,01,0.00
2010,04,27,02,02,0.00
2010,04,27,02,03,0.00
2010,04,27,02,04,0.00
2010,04,27,02,05,0.00
2010,04,27,02,06,0.00
2010,04,27,02,07,0.00
2010,04,27,02,08,0.00
2010,04,27,02,09,0.00
2010,04,27,02,10,0.00
2010,04,27,02,11,0.00
2010,04,27,02,12,0.00
2010,04,27,02,13,0.00
2010,04,27,02,14,0.00
2010,04,27,02,15,0.00
2010,04,27,02,16,0.00
2010,04,27,02,17,0.00
2010,04,27,02,18,0.00
2010,04,27,02,19,0.00
2010,04,27,02,20,0.00
2010,04,27,02,21,0.00
2010,04,27,02,22,0.00
2010,04,27,02,23,0.00
2010,04,27,02,24,0.00
2010,04,27,02,25,0.00
2010,04,27,02,26,0.00
2010,04,27,02,27,0.00
2010,04,27,02,28,0.00
2010,04,27,02,29,0.00
2010,04,27,02,30,0.00
2010,04,27,02,31,0.00
2010,04,27,02,32,0.00
2010,04,27,02,33,0.00
2010,04,27,02,34,0.00
2010,04,27,02,35,0.00
2010,04,27,02,36,0.00
2010,04,27,02,37,0.00
2010,04,27,02,38,0.00
2010,04,27,02,39,0.00
2010,04,27,02,40,0.00
2010,04,27,02,41,0.00
2010,04,27,02,42,0.00
2010,04,27,02,43,0.00
2010,04,27,02,44,0.00
2010,04,27,02,45,0.00
2010,04,27,02,46,0.00
2010,04,27,02,47,0.00
2010,04,27,02,48,0.00
2010,04,27,02,49,0.00
2010,04,27,02,50,0.00
2010,04,27,02,51,0.00
2010,04,27,02,52,0.00
2010,04,27,02,53,0.00
2010,04,27,02,54,0.00
2010,04,27,02,55,0.00
2010,04,27,02,56,0.00
2010,04,27,02,57,0.00
2010,04,27,02,58,0.00
2010,04,27,02,59,0.00
2010,04,27,03,00,0.00
2010,04,27,03,01,0.00
2010,04,27,03,02,0.00
2010,04,27,03,03,0.00
2010,04,27,03,04,0.00
2010,04,27,03,05,0.00
2010,04,27,03,06,0.00
2010,04,27,03,07,0.00
2010,04,27,03,08,0.00
2010,04,27,03,09,0.00
2010,04,27,03,10,0.00
2010,04,27,03,11,0.00
2010,04,27,03,12,0.00
2010,04,27,03,13,0.00
2010,04,27,03,14,0.00
2010,04,27,03,15,0.00
2010,04,27,03,16,0.00
2010,04,27,03,17,0.00
2010,04,27,03,18,0.00
2010,04,27,03,19,0.00
2010,04,27,03,20,0.00
2010,04,27,03,21,0.00
2010,04,27,03,22,0.00
2010,04,27,03,23,0.00
2010,04,27,03,24,0.00
2010,04,27,03,25,0.00
2010,04,27,03,26,0.00
2010,04,27,03,27,0.00
2010,04,27,03,28,0.00
2010,04,27,03,29,0.00
2010,04,27,03,30,0.00
2010,04,27,03,31,0.00
2010,04,27,03,32,0.00
2010,04,27,03,33,0.00
2010,04,27,03,34,0.00
2010,04,27,03,35,0.00
2010,04,27,03,36,0.00
2010,04,27,03,37,0.00
2010,04,27,03,38,0.00
2010,04,27,03,39,0.00
2010,04,27,03,40,0.00
2010,04,27,03,41,0.00
2010,04,27,03,42,0.00
2010,04,27,03,43,0.00
2010,04,27,03,44,0.00
2010,04,27,03,45,0.00
2010,04,27,03,46,0.00
2010,04,27,03,47,0.00
2010,04,27,03,48,0.00
2010,04,27,03,49,0.00
2010,04,27,03,50,0.00
2010,04,27,03,51,0.00
2010,04,27,03,52,0.00
2010,04,27,03,53,0.00
2010,04,27,03,54,0.00
2010,04,27,03,55,0.00
2010,04,27,03,56,0.00
2010,04,27,03,57,0.00
2010,04,27,03,58,0.00
2010,04,27,03,59,0.00
2010,04,27,04,00,0.00
2010,04,27,04,01,0.00
2010,04,27,04,02,0.00
2010,04,27,04,03,0.00
2010,04,27,04,04,0.00
2010,04,27,04,05,0.00
2010,04,27,04,06,0.00
2010,04,27,04,07,0.00
2010,04,27,04,08,0.00
2010,04,27,04,09,0.00
2010,04,27,04,10,0.00
2010,04,27,04,11,0.00
2010,04,27,04,12,0.00
2010,04,27,04,13,0.00
2010,04,27,04,14,0.00
2010,04,27,04,15,0.00
2010,04,27,04,16,0.00
2010,04,27,04,17,0.00
2010,04,27,04,18,0.00
2010,04,27,04,19,0.00
2010,04,27,04,20,0.00
2010,04,27,04,21,0.00
2010,04,27,04,22,0.00
2010,04,27,04,23,0.00
2010,04,27,04,24,0.00
2010,04,27,04,25,0.00
2010,04,27,04,26,0.00
2010,04,27,04,27,0.00
2010,04,27,04,28,0.00
2010,04,27,04,29,0.00
2010,04,27,04,30,0.00
2010,04,27,04,31,0.00
2010,04,27,04,32,0.00
2010,04,27,04,33,0.00
2010,04,27,04,34,0.00
2010,04,27,04,35,0.00
2010,04,27,04,36,0.00
2010,04,27,04,37,0.00
2010,04,27,04,38,0.00
2010,04,27,04,39,0.00
2010,04,27,04,40,0.00
2010,04,27,04,41,0.00
2010,04,27,04,42,0.00
2010,04,27,04,43,0.00
2010,04,27,04,44,0.00
2010,04,27,04,45,0.00
2010,04,27,04,46,0.00
2010,04,27,04,47,0.00
2010,04,27,04,48,0.00
2010,04,27,04,49,0.00
2010,04,27,04,50,0.00
2010,04,27,04,51,0.00
2010,04,27,04,52,0.00
2010,04,27,04,53,0.00
2010,04,27,04,54,0.00
2010,04,27,04,55,0.00
2010,04,27,04,56,0.00
2010,04,27,04,57,0.00
2010,04,27,04,58,0.00
2010,04,27,04,59,0.00
2010,04,27,05,00,0.00
2010,04,27,05,01,0.00
2010,04,27,05,02,0.00
2010,04,27,05,03,0.00
2010,04,27,05,04,0.00
2010,04,27,05,05,0.00
2010,04,27,05,06,0.00
2010,04,27,05,07,0.00
2010,04,27,05,08,0.00
2010,04,27,05,09,0.00
2010,04,27,05,10,0.00
2010,04,27,05,11,0.00
2010,04,27,05,12,0.00
2010,04,27,05,13,0.00
2010,04,27,05,14,0.00
2010,04,27,05,15,0.00
2010,04,27,05,16,0.00
2010,04,27,05,17,0.00
2010,04,27,05,18,0.00
2010,04,27,05,19,0.00
2010,04,27,05,20,0.00
2010,04,27,05,21,0.00
2010,04,27,05,22,0.00
2010,04,27,05,23,0.00
2010,04,27,05,24,0.00
2010,04,27,05,25,0.00
2010,04,27,05,26,0.00
2010,04,27,05,27,0.00
2010,04,27,05,28,0.00
2010,04,27,05,29,0.00
2010,04,27,05,30,0.00
2010,04,27,05,31,0.00
2010,04,27,05,32,0.00
2010,04,27,05,33,0.00
2010,04,27,05,34,0.00
2010,04,27,05,35,0.00
2010,04,27,05,36,0.00
2010,04,27,05,37,0.00
2010,04,27,05,38,0.00
2010,04,27,05,39,0.00
2010,04,27,05,40,0.00
2010,04,27,05,41,0.00
2010,04,27,05,42,0.00
2010,04,27,05,43,0.00
2010,04,27,05,44,0.00
2010,04,27,05,45,0.00
2010,04,27,05,46,0.00
2010,04,27,05,47,0.00
2010,04,27,05,48,0.00
2010,04,27,05,49,0.00
2010,04,27,05,50,0.00
2010,04,27,05,51,0.00
2010,04,27,05,52,0.00
2010,04,27,05,53,0.00
2010,04,27,05,54,0.00
2010,04,27,05,55,0.00
2010,04,27,05,56,0.00
2010,04,27,05,57,0.00
2010,04,27,05,58,0.00
2010,04,27,05,59,0.00
2010,04,27,06,00,0.00
2010,04,27,06,01,0.00
2010,04,27,06,02,0.00
2010,04,27,06,03,0.00
2010,04,27,06,04,0.00
2010,04,27,06,05,0.00
2010,04,27,06,06,0.00
2010,04,27,06,07,0.00
2010,04,27,06,08,0.00
2010,04,27,06,09,0.00
2010,04,27,06,10,2.90
2010,04,27,06,11,5.00
2010,04,27,06,12,5.00
2010,04,27,06,13,5.00
2010,04,27,06,14,5.00
2010,04,27,06,15,5.00
2010,04,27,06,16,5.00
2010,04,27,06,17,5.00
2010,04,27,06,18,5.00
2010,04,27,06,19,5.00
2010,04,27,06,20,5.00
2010,04,27,06,21,5.00
2010,04,27,06,22,5.00
2010,04,27,06,23,5.00
2010,04,27,06,24,5.50
2010,04,27,06,25,7.00
2010,04,27,06,26,7.00
2010,04,27,06,27,7.00
2010,04,27,06,28,7.00
2010,04,27,06,29,7.00
2010,04,27,06,30,7.00
2010,04,27,06,31,7.20
2010,04,27,06,32,9.00
2010,04,27,06,33,9.00
2010,04,27,06,34,9.00
2010,04,27,06,35,9.00
2010,04,27,06,36,9.00
2010,04,27,06,37,9.00
2010,04,27,06,38,10.70
2010,04,27,06,39,11.00
2010,04,27,06,40,12.00
2010,04,27,06,41,12.50
2010,04,27,06,42,14.70
2010,04,27,06,43,17.40
2010,04,27,06,44,20.20
2010,04,27,06,45,23.60
2010,04,27,06,46,27.20
2010,04,27,06,47,32.20
2010,04,27,06,48,39.00
2010,04,27,06,49,45.00
2010,04,27,06,50,49.50
2010,04,27,06,51,51.70
2010,04,27,06,52,53.00
2010,04,27,06,53,53.60
2010,04,27,06,54,55.50
2010,04,27,06,55,57.70
2010,04,27,06,56,59.70
2010,04,27,06,57,63.40
2010,04,27,06,58,67.40
2010,04,27,06,59,69.00
2010,04,27,07,00,69.00
2010,04,27,07,01,69.00
2010,04,27,07,02,69.00
2010,04,27,07,03,67.50
2010,04,27,07,04,67.00
2010,04,27,07,05,65.10
2010,04,27,07,06,64.70
2010,04,27,07,07,62.70
2010,04,27,07,08,61.30
2010,04,27,07,09,58.20
2010,04,27,07,10,56.00
2010,04,27,07,11,54.60
2010,04,27,07,12,51.80
2010,04,27,07,13,49.30
2010,04,27,07,14,52.90
2010,04,27,07,15,54.40
2010,04,27,07,16,56.60
2010,04,27,07,17,60.10
2010,04,27,07,18,66.20
2010,04,27,07,19,69.00
2010,04,27,07,20,71.20
2010,04,27,07,21,70.40
2010,04,27,07,22,65.10
2010,04,27,07,23,63.10
2010,04,27,07,24,71.60
2010,04,27,07,25,83.40
2010,04,27,07,26,96.20
2010,04,27,07,27,106.90
2010,04,27,07,28,113.10
2010,04,27,07,29,117.20
2010,04,27,07,30,123.90
2010,04,27,07,31,130.00
2010,04,27,07,32,136.40
2010,04,27,07,33,142.50
2010,04,27,07,34,140.50
2010,04,27,07,35,132.20
2010,04,27,07,36,126.20
2010,04,27,07,37,116.70
2010,04,27,07,38,105.60
2010,04,27,07,39,91.70
2010,04,27,07,40,85.10
2010,04,27,07,41,75.60
2010,04,27,07,42,68.50
2010,04,27,07,43,66.80
2010,04,27,07,44,71.80
2010,04,27,07,45,69.60
2010,04,27,07,46,65.50
2010,04,27,07,47,68.40
2010,04,27,07,48,86.60
2010,04,27,07,49,115.10
2010,04,27,07,50,126.30
2010,04,27,07,51,152.20
2010,04,27,07,52,152.90
2010,04,27,07,53,113.60
2010,04,27,07,54,87.70
2010,04,27,07,55,77.50
2010,04,27,07,56,69.70
2010,04,27,07,57,67.50
2010,04,27,07,58,73.50
2010,04,27,07,59,80.30
2010,04,27,08,00,83.40
2010,04,27,08,01,83.50
2010,04,27,08,02,74.60
2010,04,27,08,03,67.80
2010,04,27,08,04,72.90
2010,04,27,08,05,86.30
2010,04,27,08,06,108.90
2010,04,27,08,07,136.60
2010,04,27,08,08,137.70
2010,04,27,08,09,136.70
2010,04,27,08,10,131.60
2010,04,27,08,11,125.70
2010,04,27,08,12,117.50
2010,04,27,08,13,111.30
2010,04,27,08,14,116.00
2010,04,27,08,15,116.00
2010,04,27,08,16,113.60
2010,04,27,08,17,100.30
2010,04,27,08,18,89.40
2010,04,27,08,19,96.40
2010,04,27,08,20,106.20
2010,04,27,08,21,102.10
2010,04,27,08,22,91.00
2010,04,27,08,23,93.70
2010,04,27,08,24,101.00
2010,04,27,08,25,98.40
2010,04,27,08,26,81.70
2010,04,27,08,27,78.90
2010,04,27,08,28,86.40
2010,04,27,08,29,81.20
2010,04,27,08,30,80.60
2010,04,27,08,31,76.10
2010,04,27,08,32,73.30
2010,04,27,08,33,85.50
2010,04,27,08,34,106.60
2010,04,27,08,35,128.80
2010,04,27,08,36,153.00
2010,04,27,08,37,165.20
2010,04,27,08,38,163.20
2010,04,27,08,39,162.00
2010,04,27,08,40,169.80
2010,04,27,08,41,158.90
2010,04,27,08,42,156.60
2010,04,27,08,43,162.10
2010,04,27,08,44,166.10
2010,04,27,08,45,164.50
2010,04,27,08,46,162.30
2010,04,27,08,47,162.00
2010,04,27,08,48,166.80
2010,04,27,08,49,173.40
2010,04,27,08,50,182.30
2010,04,27,08,51,193.40
2010,04,27,08,52,206.00
2010,04,27,08,53,235.10
2010,04,27,08,54,289.90
2010,04,27,08,55,302.40
2010,04,27,08,56,302.00
2010,04,27,08,57,195.80
2010,04,27,08,58,211.30
2010,04,27,08,59,213.20
2010,04,27,09,00,209.10
2010,04,27,09,01,191.50
2010,04,27,09,02,169.90
2010,04,27,09,03,140.40
2010,04,27,09,04,116.00
2010,04,27,09,05,107.60
2010,04,27,09,06,109.30
2010,04,27,09,07,115.80
2010,04,27,09,08,127.70
2010,04,27,09,09,119.00
2010,04,27,09,10,135.40
2010,04,27,09,11,199.00
2010,04,27,09,12,237.00
2010,04,27,09,13,237.00
2010,04,27,09,14,243.60
2010,04,27,09,15,223.80
2010,04,27,09,16,116.50
2010,04,27,09,17,116.60
2010,04,27,09,18,114.00
2010,04,27,09,19,181.40
2010,04,27,09,20,287.40
2010,04,27,09,21,376.90
2010,04,27,09,22,464.70
2010,04,27,09,23,448.90
2010,04,27,09,24,238.30
2010,04,27,09,25,229.90
2010,04,27,09,26,267.00
2010,04,27,09,27,284.90
2010,04,27,09,28,301.00
2010,04,27,09,29,301.00
2010,04,27,09,30,301.00
2010,04,27,09,31,471.10
2010,04,27,09,32,497.00
2010,04,27,09,33,497.00
2010,04,27,09,34,497.00
2010,04,27,09,35,497.00
2010,04,27,09,36,547.90
2010,04,27,09,37,582.90
2010,04,27,09,38,578.20
2010,04,27,09,39,571.00
2010,04,27,09,40,566.20
2010,04,27,09,41,565.50
2010,04,27,09,42,562.40
2010,04,27,09,43,559.40
2010,04,27,09,44,570.30
2010,04,27,09,45,578.10
2010,04,27,09,46,574.40
2010,04,27,09,47,580.30
2010,04,27,09,48,586.70
2010,04,27,09,49,593.70
2010,04,27,09,50,594.80
2010,04,27,09,51,602.20
2010,04,27,09,52,618.10
2010,04,27,09,53,619.60
2010,04,27,09,54,631.60
2010,04,27,09,55,644.40
2010,04,27,09,56,645.00
2010,04,27,09,57,647.30
2010,04,27,09,58,687.50
2010,04,27,09,59,679.00
2010,04,27,10,00,648.50
2010,04,27,10,01,571.80
2010,04,27,10,02,547.00
2010,04,27,10,03,645.00
2010,04,27,10,04,694.00
2010,04,27,10,05,539.30
2010,04,27,10,06,493.20
2010,04,27,10,07,315.00
2010,04,27,10,08,315.00
2010,04,27,10,09,492.70
2010,04,27,10,10,732.00
2010,04,27,10,11,728.00
2010,04,27,10,12,713.00
2010,04,27,10,13,702.10
2010,04,27,10,14,701.00
2010,04,27,10,15,686.60
2010,04,27,10,16,594.40
2010,04,27,10,17,536.00
2010,04,27,10,18,536.00
2010,04,27,10,19,536.00
2010,04,27,10,20,536.00
2010,04,27,10,21,384.80
2010,04,27,10,22,347.20
2010,04,27,10,23,352.00
2010,04,27,10,24,352.00
2010,04,27,10,25,320.80
2010,04,27,10,26,217.20
2010,04,27,10,27,216.50
2010,04,27,10,28,236.00
2010,04,27,10,29,236.00
2010,04,27,10,30,592.10
2010,04,27,10,31,630.30
2010,04,27,10,32,624.00
2010,04,27,10,33,624.00
2010,04,27,10,34,624.00
2010,04,27,10,35,624.00
2010,04,27,10,36,624.00
2010,04,27,10,37,643.60
2010,04,27,10,38,652.00
2010,04,27,10,39,652.00
2010,04,27,10,40,703.00
2010,04,27,10,41,688.70
2010,04,27,10,42,603.00
2010,04,27,10,43,603.00
2010,04,27,10,44,603.00
2010,04,27,10,45,694.80
2010,04,27,10,46,733.60
2010,04,27,10,47,724.50
2010,04,27,10,48,728.00
2010,04,27,10,49,712.30
2010,04,27,10,50,715.40
2010,04,27,10,51,720.80
2010,04,27,10,52,726.90
2010,04,27,10,53,724.00
2010,04,27,10,54,724.00
2010,04,27,10,55,721.80
2010,04,27,10,56,727.70
2010,04,27,10,57,729.00
2010,04,27,10,58,726.50
2010,04,27,10,59,718.10
2010,04,27,11,00,735.90
2010,04,27,11,01,738.00
2010,04,27,11,02,738.00
2010,04,27,11,03,740.60
2010,04,27,11,04,745.80
2010,04,27,11,05,751.00
2010,04,27,11,06,753.50
2010,04,27,11,07,747.40
2010,04,27,11,08,749.00
2010,04,27,11,09,748.30
2010,04,27,11,10,747.00
2010,04,27,11,11,745.90
2010,04,27,11,12,744.30
2010,04,27,11,13,744.00
2010,04,27,11,14,744.90
2010,04,27,11,15,744.00
2010,04,27,11,16,744.20
2010,04,27,11,17,746.20
2010,04,27,11,18,749.00
2010,04,27,11,19,749.00
2010,04,27,11,20,750.30
2010,04,27,11,21,751.70
2010,04,27,11,22,752.00
2010,04,27,11,23,753.70
2010,04,27,11,24,748.40
2010,04,27,11,25,742.10
2010,04,27,11,26,736.80
2010,04,27,11,27,740.00
2010,04,27,11,28,744.70
2010,04,27,11,29,745.60
2010,04,27,11,30,749.20
2010,04,27,11,31,751.00
2010,04,27,11,32,749.30
2010,04,27,11,33,757.00
2010,04,27,11,34,742.80
2010,04,27,11,35,684.00
2010,04,27,11,36,684.00
2010,04,27,11,37,760.80
2010,04,27,11,38,805.00
2010,04,27,11,39,798.80
2010,04,27,11,40,796.20
2010,04,27,11,41,798.00
2010,04,27,11,42,797.40
2010,04,27,11,43,796.00
2010,04,27,11,44,799.80
2010,04,27,11,45,802.00
2010,04,27,11,46,805.10
2010,04,27,11,47,803.20
2010,04,27,11,48,802.90
2010,04,27,11,49,810.30
2010,04,27,11,50,818.40
2010,04,27,11,51,826.40
2010,04,27,11,52,835.80
2010,04,27,11,53,843.20
2010,04,27,11,54,853.30
2010,04,27,11,55,877.20
2010,04,27,11,56,871.20
2010,04,27,11,57,862.00
2010,04,27,11,58,857.80
2010,04,27,11,59,856.00
2010,04,27,12,00,853.30
2010,04,27,12,01,848.80
2010,04,27,12,02,856.80
2010,04,27,12,03,861.00
2010,04,27,12,04,843.30
2010,04,27,12,05,831.30
2010,04,27,12,06,851.40
2010,04,27,12,07,847.20
2010,04,27,12,08,851.60
2010,04,27,12,09,842.40
2010,04,27,12,10,840.00
2010,04,27,12,11,843.50
2010,04,27,12,12,844.70
2010,04,27,12,13,845.60
2010,04,27,12,14,850.50
2010,04,27,12,15,849.60
2010,04,27,12,16,854.40
2010,04,27,12,17,857.30
2010,04,27,12,18,859.30
2010,04,27,12,19,858.00
2010,04,27,12,20,859.20
2010,04,27,12,21,860.00
2010,04,27,12,22,860.00
2010,04,27,12,23,860.90
2010,04,27,12,24,860.00
2010,04,27,12,25,859.20
2010,04,27,12,26,856.00
2010,04,27,12,27,856.00
2010,04,27,12,28,858.30
2010,04,27,12,29,862.10
2010,04,27,12,30,864.60
2010,04,27,12,31,861.40
2010,04,27,12,32,859.80
2010,04,27,12,33,856.00
2010,04,27,12,34,856.00
2010,04,27,12,35,858.50
2010,04,27,12,36,866.50
2010,04,27,12,37,874.40
2010,04,27,12,38,886.60
2010,04,27,12,39,888.60
2010,04,27,12,40,890.50
2010,04,27,12,41,886.50
2010,04,27,12,42,845.00
2010,04,27,12,43,860.90
2010,04,27,12,44,902.00
2010,04,27,12,45,902.00
2010,04,27,12,46,899.60
2010,04,27,12,47,898.00
2010,04,27,12,48,898.00
2010,04,27,12,49,894.80
2010,04,27,12,50,886.80
2010,04,27,12,51,879.40
2010,04,27,12,52,896.70
2010,04,27,12,53,894.00
2010,04,27,12,54,901.00
2010,04,27,12,55,909.00
2010,04,27,12,56,910.60
2010,04,27,12,57,911.80
2010,04,27,12,58,927.00
2010,04,27,12,59,918.80
2010,04,27,13,00,962.00
2010,04,27,13,01,975.80
2010,04,27,13,02,982.60
2010,04,27,13,03,990.90
2010,04,27,13,04,1001.60
2010,04,27,13,05,939.20
2010,04,27,13,06,923.00
2010,04,27,13,07,503.00
2010,04,27,13,08,503.00
2010,04,27,13,09,631.20
2010,04,27,13,10,927.90
2010,04,27,13,11,982.90
2010,04,27,13,12,1000.80
2010,04,27,13,13,997.00
2010,04,27,13,14,997.00
2010,04,27,13,15,997.00
2010,04,27,13,16,997.00
2010,04,27,13,17,832.30
2010,04,27,13,18,387.20
2010,04,27,13,19,415.00
2010,04,27,13,20,747.80
2010,04,27,13,21,1060.60
2010,04,27,13,22,1072.70
2010,04,27,13,23,1104.20
2010,04,27,13,24,1106.00
2010,04,27,13,25,1021.50
2010,04,27,13,26,768.00
2010,04,27,13,27,875.40
2010,04,27,13,28,993.80
2010,04,27,13,29,989.50
2010,04,27,13,30,975.70
2010,04,27,13,31,950.20
2010,04,27,13,32,917.50
2010,04,27,13,33,918.20
2010,04,27,13,34,919.00
2010,04,27,13,35,921.10
2010,04,27,13,36,930.70
2010,04,27,13,37,944.20
2010,04,27,13,38,958.60
2010,04,27,13,39,975.60
2010,04,27,13,40,996.10
2010,04,27,13,41,995.20
2010,04,27,13,42,1086.00
2010,04,27,13,43,1116.00
2010,04,27,13,44,1116.00
2010,04,27,13,45,1104.60
2010,04,27,13,46,1092.00
2010,04,27,13,47,1092.00
2010,04,27,13,48,1092.00
2010,04,27,13,49,940.40
2010,04,27,13,50,932.00
2010,04,27,13,51,932.00
2010,04,27,13,52,932.00
2010,04,27,13,53,867.60
2010,04,27,13,54,779.00
2010,04,27,13,55,779.00
2010,04,27,13,56,918.70
2010,04,27,13,57,956.00
2010,04,27,13,58,957.80
2010,04,27,13,59,993.50
2010,04,27,14,00,1007.00
2010,04,27,14,01,690.60
2010,04,27,14,02,222.70
2010,04,27,14,03,230.00
2010,04,27,14,04,819.50
2010,04,27,14,05,1030.00
2010,04,27,14,06,1030.00
2010,04,27,14,07,915.50
2010,04,27,14,08,271.70
2010,04,27,14,09,285.00
2010,04,27,14,10,290.10
2010,04,27,14,11,303.30
2010,04,27,14,12,309.00
2010,04,27,14,13,309.00
2010,04,27,14,14,309.00
2010,04,27,14,15,307.10
2010,04,27,14,16,268.40
2010,04,27,14,17,243.20
2010,04,27,14,18,223.10
2010,04,27,14,19,212.10
2010,04,27,14,20,216.80
2010,04,27,14,21,234.70
2010,04,27,14,22,259.40
2010,04,27,14,23,328.40
2010,04,27,14,24,329.00
2010,04,27,14,25,327.00
2010,04,27,14,26,261.30
2010,04,27,14,27,242.40
2010,04,27,14,28,228.50
2010,04,27,14,29,235.80
2010,04,27,14,30,282.20
2010,04,27,14,31,312.60
2010,04,27,14,32,334.00
2010,04,27,14,33,401.70
2010,04,27,14,34,380.20
2010,04,27,14,35,378.00
2010,04,27,14,36,409.70
2010,04,27,14,37,407.50
2010,04,27,14,38,367.00
2010,04,27,14,39,367.00
2010,04,27,14,40,367.00
2010,04,27,14,41,367.00
2010,04,27,14,42,367.00
2010,04,27,14,43,477.80
2010,04,27,14,44,830.00
2010,04,27,14,45,867.00
2010,04,27,14,46,751.50
2010,04,27,14,47,703.20
2010,04,27,14,48,747.80
2010,04,27,14,49,755.80
2010,04,27,14,50,754.90
2010,04,27,14,51,697.20
2010,04,27,14,52,681.90
2010,04,27,14,53,646.20
2010,04,27,14,54,638.60
2010,04,27,14,55,668.00
2010,04,27,14,56,668.00
2010,04,27,14,57,668.00
2010,04,27,14,58,668.00
2010,04,27,14,59,668.00
2010,04,27,15,00,732.20
2010,04,27,15,01,917.90
2010,04,27,15,02,914.50
2010,04,27,15,03,882.60
2010,04,27,15,04,815.30
2010,04,27,15,05,736.80
2010,04,27,15,06,780.80
2010,04,27,15,07,865.00
2010,04,27,15,08,865.00
2010,04,27,15,09,876.70
2010,04,27,15,10,904.00
2010,04,27,15,11,904.00
2010,04,27,15,12,904.00
2010,04,27,15,13,904.00
2010,04,27,15,14,791.20
2010,04,27,15,15,770.00
2010,04,27,15,16,747.30
2010,04,27,15,17,619.60
2010,04,27,15,18,594.80
2010,04,27,15,19,504.30
2010,04,27,15,20,421.30
2010,04,27,15,21,376.40
2010,04,27,15,22,369.50
2010,04,27,15,23,367.20
2010,04,27,15,24,370.20
2010,04,27,15,25,441.80
2010,04,27,15,26,485.00
2010,04,27,15,27,571.70
2010,04,27,15,28,691.00
2010,04,27,15,29,691.00
2010,04,27,15,30,691.00
2010,04,27,15,31,691.00
2010,04,27,15,32,557.80
2010,04,27,15,33,524.90
2010,04,27,15,34,362.80
2010,04,27,15,35,368.20
2010,04,27,15,36,367.10
2010,04,27,15,37,350.60
2010,04,27,15,38,336.40
2010,04,27,15,39,323.60
2010,04,27,15,40,303.90
2010,04,27,15,41,288.60
2010,04,27,15,42,299.00
2010,04,27,15,43,299.00
2010,04,27,15,44,299.00
2010,04,27,15,45,299.00
2010,04,27,15,46,299.00
2010,04,27,15,47,323.70
2010,04,27,15,48,341.50
2010,04,27,15,49,306.30
2010,04,27,15,50,374.40
2010,04,27,15,51,378.00
2010,04,27,15,52,378.00
2010,04,27,15,53,378.00
2010,04,27,15,54,378.00
2010,04,27,15,55,364.20
2010,04,27,15,56,355.00
2010,04,27,15,57,355.00
2010,04,27,15,58,374.80
2010,04,27,15,59,767.60
2010,04,27,16,00,759.00
2010,04,27,16,01,773.00
2010,04,27,16,02,580.80
2010,04,27,16,03,346.00
2010,04,27,16,04,669.60
2010,04,27,16,05,826.10
2010,04,27,16,06,838.70
2010,04,27,16,07,821.00
2010,04,27,16,08,770.90
2010,04,27,16,09,519.00
2010,04,27,16,10,561.00
2010,04,27,16,11,455.70
2010,04,27,16,12,340.80
2010,04,27,16,13,391.20
2010,04,27,16,14,395.20
2010,04,27,16,15,392.00
2010,04,27,16,16,392.00
2010,04,27,16,17,392.00
2010,04,27,16,18,336.50
2010,04,27,16,19,196.60
2010,04,27,16,20,173.00
2010,04,27,16,21,169.60
2010,04,27,16,22,181.30
2010,04,27,16,23,183.30
2010,04,27,16,24,181.00
2010,04,27,16,25,179.90
2010,04,27,16,26,174.00
2010,04,27,16,27,174.00
2010,04,27,16,28,182.00
2010,04,27,16,29,190.00
2010,04,27,16,30,512.30
2010,04,27,16,31,661.00
2010,04,27,16,32,650.80
2010,04,27,16,33,630.00
2010,04,27,16,34,629.00
2010,04,27,16,35,527.40
2010,04,27,16,36,230.00
2010,04,27,16,37,209.00
2010,04,27,16,38,294.80
2010,04,27,16,39,342.70
2010,04,27,16,40,339.00
2010,04,27,16,41,169.40
2010,04,27,16,42,155.70
2010,04,27,16,43,151.20
2010,04,27,16,44,144.60
2010,04,27,16,45,140.60
2010,04,27,16,46,137.90
2010,04,27,16,47,140.20
2010,04,27,16,48,146.50
2010,04,27,16,49,156.90
2010,04,27,16,50,181.40
2010,04,27,16,51,213.00
2010,04,27,16,52,216.70
2010,04,27,16,53,229.00
2010,04,27,16,54,246.00
2010,04,27,16,55,240.40
2010,04,27,16,56,212.80
2010,04,27,16,57,219.80
2010,04,27,16,58,288.40
2010,04,27,16,59,329.80
2010,04,27,17,00,408.00
2010,04,27,17,01,503.20
2010,04,27,17,02,549.00
2010,04,27,17,03,552.00
2010,04,27,17,04,440.20
2010,04,27,17,05,380.00
2010,04,27,17,06,238.10
2010,04,27,17,07,189.40
2010,04,27,17,08,177.40
2010,04,27,17,09,173.20
2010,04,27,17,10,171.40
2010,04,27,17,11,170.60